Regional Weather Roundup
Issued by NWS

Home | Current Version | Previous Version | Graphics & Text | Print | Product List | Glossary On
Versions: 1 2 3 4 5 6 7 8 9 10 11 12 13 14 15 16 17 18 19 20 21 22 23 24 25 26 27 28 29 30 31 32 33 34 35 36 37 38 39 40 41 42 43 44 45 46 47 48 49 50
000
ASUS43 KTOP 262059
RWRKS

WEATHER ROUNDUP FOR KANSAS
NATIONAL WEATHER SERVICE GOODLAND KS
400 PM CDT SUN APR 26 2015

NOTE:  "FAIR" INDICATES FEW OR NO CLOUDS BELOW 12,000 FEET WITH NO
SIGNIFICANT WEATHER AND/OR OBSTRUCTIONS TO VISIBILITY.

KSZ001>006-013>018-027>032-041>047-262200-
NORTHWEST KANSAS

CITY           SKY/WX    TMP DP  RH WIND       PRES   REMARKS
GOODLAND       CLOUDY    44  44 100 E14       29.93S FOG
HAYS           CLOUDY    48  41  76 E16       29.92S
HILL CITY      CLOUDY    50  45  83 E14       29.95R
RUSSELL        CLOUDY    50  48  93 E17       29.90F FOG
$$

KSZ061>065-074>080-084>089-262200-
SOUTHWEST KANSAS

CITY           SKY/WX    TMP DP  RH WIND       PRES   REMARKS
DODGE CITY     CLOUDY    52  47  83 E18       29.84F
ELKHART          N/A     50  43  77 NE17        N/A
GARDEN CITY    CLOUDY    47  46  97 E23       29.84S FOG
GREAT BEND     CLOUDY    52  45  76 E18       29.88F
LIBERAL          N/A    N/A N/A N/A MISG        N/A
$$

KSZ066>073-081>083-090>101-262200-
SOUTHEAST KANSAS

CITY           SKY/WX    TMP DP  RH WIND       PRES   REMARKS
CHANUTE        CLOUDY    56  46  69 NE15G26   29.88F
COFFEYVILLE    CLOUDY    59  49  69 NE20G25   29.85F
HUTCHINSON     CLOUDY    54  46  74 NE15G22   29.88F
MEDICINE LODGE   N/A     56  49  77 NE16G24   29.80F
NEWTON         CLOUDY    52  43  71 E13G21    29.90F
PARSONS        CLOUDY    58  49  72 NE10G17   29.88F
WICHITA INTL   CLOUDY    57  47  69 NE23      29.84F
WICHITA JABRA  CLOUDY    56  47  71 NE18G28   29.85F
WINFIELD       CLOUDY    61  49  64 NE20G26   29.83S
$$

KSZ007>012-019>026-033>040-048>060-102>105-262200-
NORTHEAST KANSAS

CITY           SKY/WX    TMP DP  RH WIND       PRES   REMARKS
CONCORDIA      CLOUDY    51  43  74 E12       29.97S
EMPORIA        CLOUDY    53  44  71 E17       29.91F
LAWRENCE       MOSUNNY   60  45  57 NE12G18   29.94F
MANHATTAN      CLOUDY    54  45  71 E15       29.95F
OLATHE IND     PTSUNNY   60  44  55 NE12      29.94F
OLATHE EXE     SUNNY     60  44  55 E13       29.93F
SALINA         CLOUDY    53  43  68 E9        29.94S
TOPEKA BILLARD PTSUNNY   59  44  57 E16       29.94F
TOPEKA FORBES  MOSUNNY   60  45  57 E15G23    29.93F
$$



USA.gov is the U.S. government's official web portal to all federal, state and local government web resources and services.